| time (UTC) | temp C | wind direction | speed KPH | gust KPH | rain 1hr cm | rain 24hr cm | rain mn cm | humidity % | barometer mb |
| 20260506201959 | 16 | 204 | 3.2 | 8.0 | 0.00 | 0.64 | 0.64 | 95 | 1006.4 |
| 20260506195959 | 16 | 239 | 3.2 | 8.0 | 0.03 | 0.64 | 0.64 | 95 | 1006.5 |
| 20260506194948 | 16 | 270 | 3.2 | 6.4 | 0.05 | 0.64 | 0.64 | 95 | 1006.7 |
| 20260506193958 | 16 | 191 | 3.2 | 8.0 | 0.08 | 0.64 | 0.64 | 95 | 1006.8 |
| 20260506192946 | 16 | 203 | 3.2 | 6.4 | 0.10 | 0.64 | 0.64 | 95 | 1006.9 |
| 20260506191955 | 16 | 233 | 4.8 | 8.0 | 0.13 | 0.64 | 0.64 | 95 | 1007.1 |
| 20260506190945 | 16 | 219 | 3.2 | 6.4 | 0.18 | 0.64 | 0.64 | 95 | 1007.4 |
| 20260506184951 | 16 | 243 | 6.4 | 12.9 | 0.15 | 0.58 | 0.58 | 94 | 1007.4 |
| 20260506183941 | 16 | 226 | 3.2 | 9.7 | 0.13 | 0.56 | 0.56 | 94 | 1007.5 |
| 20260506182951 | 16 | 219 | 1.6 | 6.4 | 0.10 | 0.53 | 0.53 | 94 | 1007.4 |
| 20260506181959 | 16 | 187 | 3.2 | 9.7 | 0.08 | 0.51 | 0.51 | 94 | 1007.5 |
| 20260506180948 | 16 | 248 | 4.8 | 16.1 | 0.03 | 0.46 | 0.46 | 93 | 1007.4 |
| 20260506175940 | 16 | 197 | 3.2 | 9.7 | 0.03 | 0.43 | 0.43 | 93 | 1007.5 |
| 20260506174950 | 16 | 223 | 3.2 | 9.7 | 0.05 | 0.43 | 0.43 | 93 | 1007.7 |
| 20260506172952 | 16 | 294 | 4.8 | 11.3 | 0.10 | 0.43 | 0.43 | 93 | 1007.7 |
| 20260506171946 | 16 | 212 | 4.8 | 8.0 | 0.13 | 0.43 | 0.43 | 93 | 1007.8 |
| 20260506170956 | 16 | 202 | 4.8 | 6.4 | 0.18 | 0.43 | 0.43 | 93 | 1007.8 |
| 20260506165946 | 16 | 222 | 0.0 | 11.3 | 0.20 | 0.41 | 0.41 | 93 | 1007.9 |
| 20260506164955 | 16 | 181 | 3.2 | 9.7 | 0.20 | 0.38 | 0.38 | 92 | 1007.6 |
| 20260506163945 | 16 | 227 | 3.2 | 12.9 | 0.23 | 0.36 | 0.36 | 92 | 1007.7 |
| 20260506162954 | 17 | 150 | 3.2 | 12.9 | 0.20 | 0.33 | 0.33 | 93 | 1008.0 |
| 20260506161943 | 16 | 203 | 3.2 | 9.7 | 0.20 | 0.30 | 0.30 | 92 | 1008.4 |
| 20260506160953 | 16 | 196 | 3.2 | 9.7 | 0.18 | 0.25 | 0.25 | 92 | 1008.7 |
| 20260506155942 | 17 | 195 | 1.6 | 6.4 | 0.13 | 0.20 | 0.20 | 91 | 1008.9 |
| 20260506154955 | 17 | 203 | 3.2 | 6.4 | 0.15 | 0.18 | 0.18 | 90 | 1009.0 |
| 20260506153945 | 17 | 212 | 3.2 | 6.4 | 0.13 | 0.13 | 0.13 | 90 | 1009.0 |
| 20260506152954 | 17 | 215 | 3.2 | 6.4 | 0.13 | 0.13 | 0.13 | 89 | 1008.9 |
| 20260506151943 | 17 | 196 | 3.2 | 4.8 | 0.10 | 0.10 | 0.10 | 89 | 1008.8 |
| 20260506145945 | 18 | 216 | 4.8 | 6.4 | 0.08 | 0.08 | 0.08 | 84 | 1008.8 |
| 20260506144954 | 18 | 226 | 4.8 | 9.7 | 0.03 | 0.03 | 0.03 | 81 | 1009.1 |
| 20260506142956 | 18 | 146 | 6.4 | 11.3 | 0.00 | 0.00 | 0.00 | 78 | 1009.0 |
| 20260506140943 | 19 | 242 | 4.8 | 8.0 | 0.00 | 0.00 | 0.00 | 79 | 1008.8 |
| 20260506135953 | 18 | 182 | 3.2 | 6.4 | 0.00 | 0.00 | 0.00 | 78 | 1008.8 |
| 20260506134942 | 18 | 20 | 1.6 | 14.5 | 0.00 | 0.00 | 0.00 | 79 | 1008.9 |
| 20260506133952 | 18 | 258 | 6.4 | 19.3 | 0.00 | 0.00 | 0.00 | 78 | 1008.8 |
| 20260506132941 | 18 | 198 | 6.4 | 14.5 | 0.00 | 0.00 | 0.00 | 78 | 1009.1 |
| 20260506131951 | 18 | 194 | 8.0 | 16.1 | 0.00 | 0.00 | 0.00 | 78 | 1009.2 |
| 20260506130941 | 18 | 212 | 3.2 | 11.3 | 0.00 | 0.00 | 0.00 | 78 | 1009.2 |
| 20260506124942 | 18 | 224 | 3.2 | 8.0 | 0.00 | 0.00 | 0.00 | 79 | 1009.2 |
| 20260506123937 | 18 | 344 | 4.8 | 14.5 | 0.00 | 0.00 | 0.00 | 78 | 1008.8 |
| 20260506122950 | 18 | 211 | 3.2 | 11.3 | 0.00 | 0.00 | 0.00 | 79 | 1008.9 |
| 20260506121940 | 18 | 200 | 4.8 | 9.7 | 0.00 | 0.00 | 0.00 | 79 | 1008.9 |
| 20260506120953 | 18 | 173 | 3.2 | 9.7 | 0.00 | 0.00 | 0.00 | 79 | 1009.1 |
| 20260506115943 | 18 | 260 | 3.2 | 11.3 | 0.00 | 0.00 | 0.00 | 79 | 1009.0 |
| 20260506114953 | 18 | 137 | 3.2 | 12.9 | 0.00 | 0.00 | 0.00 | 80 | 1009.2 |
| 20260506113943 | 18 | 186 | 4.8 | 8.0 | 0.00 | 0.00 | 0.00 | 80 | 1009.3 |
| 20260506112953 | 18 | 265 | 4.8 | 14.5 | 0.00 | 0.00 | 0.00 | 80 | 1009.3 |
| 20260506111942 | 18 | 229 | 4.8 | 9.7 | 0.00 | 0.00 | 0.00 | 81 | 1009.2 |
| 20260506110953 | 17 | 212 | 0.0 | 11.3 | 0.00 | 0.00 | 0.00 | 82 | 1009.1 |
| 20260506105943 | 17 | 156 | 1.6 | 8.0 | 0.00 | 0.00 | 0.00 | 82 | 1009.0 |
| 20260506104952 | 17 | 203 | 3.2 | 9.7 | 0.00 | 0.00 | 0.00 | 82 | 1008.9 |
| 20260506103940 | 17 | 202 | 3.2 | 6.4 | 0.00 | 0.00 | 0.00 | 82 | 1008.7 |
| 20260506102950 | 17 | 139 | 0.0 | 8.0 | 0.00 | 0.00 | 0.00 | 82 | 1008.8 |
| 20260506101939 | 17 | 85 | 0.0 | 6.4 | 0.00 | 0.00 | 0.00 | 82 | 1008.9 |
| 20260506100950 | 17 | 202 | 4.8 | 8.0 | 0.00 | 0.00 | 0.00 | 82 | 1008.9 |
| 20260506095940 | 17 | 220 | 0.0 | 6.4 | 0.00 | 0.00 | 0.00 | 82 | 1008.7 |
| 20260506094949 | 17 | 95 | 1.6 | 8.0 | 0.00 | 0.00 | 0.00 | 82 | 1008.8 |
| 20260506093943 | 17 | 203 | 0.0 | 6.4 | 0.00 | 0.00 | 0.00 | 82 | 1008.7 |
| 20260506092953 | 17 | 202 | 4.8 | 8.0 | 0.00 | 0.00 | 0.00 | 82 | 1008.6 |
| 20260506091942 | 17 | 160 | 3.2 | 16.1 | 0.00 | 0.00 | 0.00 | 82 | 1008.6 |
| 20260506090952 | 17 | 198 | 1.6 | 9.7 | 0.00 | 0.00 | 0.00 | 82 | 1008.8 |
| 20260506084952 | 17 | 204 | 0.0 | 6.4 | 0.00 | 0.00 | 0.00 | 81 | 1009.0 |
| 20260506083942 | 17 | 120 | 0.0 | 8.0 | 0.00 | 0.00 | 0.00 | 81 | 1008.9 |
| 20260506082951 | 17 | 191 | 0.0 | 6.4 | 0.00 | 0.00 | 0.00 | 80 | 1009.0 |
| 20260506081940 | 17 | 55 | 1.6 | 8.0 | 0.00 | 0.00 | 0.00 | 80 | 1009.0 |
| 20260506080955 | 17 | 202 | 3.2 | 11.3 | 0.00 | 0.00 | 0.00 | 79 | 1009.1 |
| 20260506072937 | 18 | 177 | 4.8 | 14.5 | 0.00 | 0.00 | 0.00 | 75 | 1009.0 |
| 20260506061955 | 19 | 7 | 3.2 | 12.9 | 0.00 | 0.00 | 0.00 | 71 | 1009.5 |
| 20260506050948 | 18 | 205 | 1.6 | 6.4 | 0.00 | 0.00 | 0.00 | 70 | 1010.0 |
| 20260506044951 | 18 | 180 | 1.6 | 6.4 | 0.00 | 0.00 | 0.00 | 70 | 1010.0 |
| 20260506043945 | 18 | 196 | 0.0 | 8.0 | 0.00 | 0.00 | 0.00 | 70 | 1010.0 |
| 20260506041946 | 18 | 219 | 1.6 | 4.8 | 0.00 | 0.00 | 0.00 | 69 | 1010.1 |
| 20260506040956 | 18 | 138 | 1.6 | 6.4 | 0.00 | 0.00 | 0.00 | 69 | 1010.2 |
| 20260506034955 | 19 | 246 | 0.0 | 3.2 | 0.00 | 0.00 | 0.00 | 68 | 1010.2 |
| 20260506033943 | 19 | 311 | 0.0 | 4.8 | 0.00 | 0.00 | 0.00 | 67 | 1010.1 |
| 20260506032952 | 20 | 231 | 1.6 | 6.4 | 0.00 | 0.00 | 0.00 | 66 | 1010.1 |
| 20260506031942 | 20 | 191 | 1.6 | 11.3 | 0.00 | 0.00 | 0.00 | 65 | 1010.0 |
| 20260506030936 | 20 | 209 | 3.2 | 8.0 | 0.00 | 0.00 | 0.00 | 64 | 1010.0 |
| 20260506025947 | 20 | 160 | 3.2 | 8.0 | 0.00 | 0.00 | 0.00 | 63 | 1010.1 |
| 20260506023948 | 21 | 96 | 1.6 | 8.0 | 0.00 | 0.00 | 0.00 | 58 | 1010.0 |
| 20260506022937 | 21 | 146 | 1.6 | 11.3 | 0.00 | 0.00 | 0.00 | 56 | 1009.9 |
| 20260506021946 | 21 | 157 | 3.2 | 11.3 | 0.00 | 0.00 | 0.00 | 55 | 1009.8 |
| 20260506020955 | 21 | 85 | 3.2 | 14.5 | 0.00 | 0.00 | 0.00 | 53 | 1009.8 |
| 20260506015944 | 22 | 196 | 0.0 | 6.4 | 0.00 | 0.00 | 0.00 | 52 | 1009.8 |
| 20260506013945 | 22 | 201 | 1.6 | 6.4 | 0.00 | 0.00 | 0.00 | 51 | 1009.5 |
| 20260506012939 | 22 | 127 | 3.2 | 9.7 | 0.00 | 0.00 | 0.00 | 50 | 1009.4 |
| 20260506011946 | 22 | 199 | 3.2 | 8.0 | 0.00 | 0.00 | 0.00 | 50 | 1009.4 |
| 20260506010938 | 22 | 177 | 3.2 | 11.3 | 0.00 | 0.00 | 0.00 | 50 | 1009.3 |
| 20260506005949 | 22 | 207 | 1.6 | 8.0 | 0.00 | 0.00 | 0.00 | 51 | 1009.1 |
| 20260506004938 | 22 | 219 | 1.6 | 9.7 | 0.00 | 0.00 | 0.00 | 50 | 1009.0 |
| 20260506003948 | 23 | 122 | 3.2 | 8.0 | 0.00 | 0.00 | 0.00 | 49 | 1008.9 |
| 20260506002937 | 23 | 223 | 4.8 | 9.7 | 0.00 | 0.00 | 0.00 | 48 | 1008.7 |
| 20260506001946 | 23 | 190 | 3.2 | 8.0 | 0.00 | 0.00 | 0.00 | 46 | 1008.7 |
| 20260506000955 | 23 | 175 | 3.2 | 8.0 | 0.00 | 0.00 | 0.00 | 45 | 1008.6 |
| 20260505235949 | 23 | 202 | 0.0 | 6.4 | 0.00 | 0.00 | 0.00 | 44 | 1008.4 |
| 20260505234938 | 23 | 181 | 1.6 | 8.0 | 0.00 | 0.00 | 0.00 | 43 | 1008.3 |
| 20260505233947 | 23 | 192 | 3.2 | 8.0 | 0.00 | 0.00 | 0.00 | 43 | 1008.4 |
| 20260505232936 | 24 | 48 | 3.2 | 9.7 | 0.00 | 0.00 | 0.00 | 42 | 1008.3 |
| 20260505231945 | 25 | 190 | 6.4 | 12.9 | 0.00 | 0.00 | 0.00 | 41 | 1008.1 |
| 20260505230936 | 25 | 115 | 6.4 | 11.3 | 0.00 | 0.00 | 0.00 | 40 | 1008.1 |
| 20260505224936 | 25 | 186 | 4.8 | 11.3 | 0.00 | 0.00 | 0.00 | 39 | 1007.8 |
| 20260505223946 | 25 | 211 | 8.0 | 12.9 | 0.00 | 0.00 | 0.00 | 38 | 1007.8 |
| 20260505222940 | 25 | 199 | 4.8 | 12.9 | 0.00 | 0.00 | 0.00 | 38 | 1007.5 |
| 20260505220941 | 25 | 221 | 8.0 | 14.5 | 0.00 | 0.00 | 0.00 | 37 | 1007.6 |
| 20260505215950 | 25 | 226 | 8.0 | 14.5 | 0.00 | 0.00 | 0.00 | 37 | 1007.7 |
| 20260505214940 | 25 | 287 | 9.7 | 16.1 | 0.00 | 0.00 | 0.00 | 36 | 1008.0 |
| 20260505213949 | 25 | 252 | 8.0 | 20.9 | 0.00 | 0.00 | 0.00 | 36 | 1007.8 |
| 20260505212937 | 26 | 221 | 8.0 | 16.1 | 0.00 | 0.00 | 0.00 | 36 | 1007.8 |
| 20260505211946 | 26 | 220 | 11.3 | 20.9 | 0.00 | 0.00 | 0.00 | 35 | 1007.3 |
| 20260505210955 | 26 | 220 | 8.0 | 14.5 | 0.00 | 0.00 | 0.00 | 36 | 1007.6 |
| 20260505204941 | 26 | 233 | 9.7 | 16.1 | 0.00 | 0.00 | 0.00 | 34 | 1007.4 |
| 20260505203952 | 27 | 246 | 8.0 | 22.5 | 0.00 | 0.00 | 0.00 | 34 | 1007.4 |
| 20260505202941 | 27 | 200 | 8.0 | 16.1 | 0.00 | 0.00 | 0.00 | 32 | 1007.6 |